Time,TemperatureF,DewpointF,PressureIn,WindDirection,WindDirectionDegrees,WindSpeedMPH,WindSpeedGustMPH,Humidity,HourlyPrecipIn,Conditions,Clouds,dailyrainin,SoftwareType,DateUTC
2013-04-25 00:03:00,39.0,33.0,30.21,West,270,0.0,0.0,78,0.00,,,0.00,,2013-04-25 04:03:00,
2013-04-25 00:12:00,39.0,33.0,30.21,SW,225,0.0,0.0,79,0.00,,,0.00,,2013-04-25 04:12:00,
2013-04-25 00:23:00,39.0,33.0,30.21,SW,225,0.0,0.0,79,0.00,,,0.00,,2013-04-25 04:23:00,
2013-04-25 00:32:00,38.0,32.0,30.20,WNW,292,0.0,0.0,79,0.00,,,0.00,,2013-04-25 04:32:00,
2013-04-25 00:43:00,38.0,32.0,30.20,WNW,292,0.0,0.0,79,0.00,,,0.00,,2013-04-25 04:43:00,
2013-04-25 00:52:00,38.0,32.0,30.20,WNW,292,0.0,0.0,79,0.00,,,0.00,,2013-04-25 04:52:00,
2013-04-25 01:02:00,38.0,32.0,30.20,SW,225,0.0,1.0,79,0.00,,,0.00,,2013-04-25 05:02:00,
2013-04-25 01:12:00,38.0,32.0,30.20,SW,225,0.0,1.0,79,0.00,,,0.00,,2013-04-25 05:12:00,
2013-04-25 01:22:00,37.0,31.0,30.20,SW,225,0.0,0.0,80,0.00,,,0.00,,2013-04-25 05:22:00,
2013-04-25 01:32:00,37.0,31.0,30.20,SW,225,0.0,0.0,80,0.00,,,0.00,,2013-04-25 05:32:00,
2013-04-25 01:42:00,37.0,31.0,30.20,SW,225,0.0,0.0,80,0.00,,,0.00,,2013-04-25 05:42:00,
2013-04-25 01:52:00,37.0,31.0,30.20,WSW,247,0.0,0.0,80,0.00,,,0.00,,2013-04-25 05:52:00,
2013-04-25 02:02:00,37.0,31.0,30.21,SSW,202,0.0,0.0,80,0.00,,,0.00,,2013-04-25 06:02:00,
2013-04-25 02:12:00,37.0,31.0,30.21,SSW,202,0.0,0.0,80,0.00,,,0.00,,2013-04-25 06:12:00,
2013-04-25 02:22:00,37.0,32.0,30.20,West,270,0.0,1.0,81,0.00,,,0.00,,2013-04-25 06:22:00,
2013-04-25 02:32:00,37.0,32.0,30.19,West,270,0.0,0.0,81,0.00,,,0.00,,2013-04-25 06:32:00,
2013-04-25 02:42:00,37.0,32.0,30.19,West,270,0.0,0.0,81,0.00,,,0.00,,2013-04-25 06:42:00,
2013-04-25 02:52:00,36.0,31.0,30.19,North,-999,-999.0,-999.0,81,0.00,,,0.00,,2013-04-25 06:52:00,
2013-04-25 03:02:00,36.0,31.0,30.19,West,270,0.0,0.0,81,0.00,,,0.00,,2013-04-25 07:02:00,
2013-04-25 03:12:00,36.0,31.0,30.19,West,270,0.0,0.0,81,0.00,,,0.00,,2013-04-25 07:12:00,
2013-04-25 03:22:00,36.0,31.0,30.19,West,270,0.0,0.0,81,0.00,,,0.00,,2013-04-25 07:22:00,
2013-04-25 03:32:00,36.0,31.0,30.18,West,270,0.0,0.0,81,0.00,,,0.00,,2013-04-25 07:32:00,
2013-04-25 03:42:00,36.0,31.0,30.18,West,270,0.0,0.0,81,0.00,,,0.00,,2013-04-25 07:42:00,
2013-04-25 03:52:00,36.0,31.0,30.18,WSW,247,0.0,0.0,81,0.00,,,0.00,,2013-04-25 07:52:00,
2013-04-25 04:02:00,35.0,30.0,30.19,WNW,292,0.0,0.0,81,0.00,,,0.00,,2013-04-25 08:02:00,
2013-04-25 04:11:00,35.0,30.0,30.19,WNW,292,0.0,0.0,81,0.00,,,0.00,,2013-04-25 08:11:00,
2013-04-25 04:21:00,35.0,30.0,30.19,West,270,0.0,6.0,82,0.00,,,0.00,,2013-04-25 08:21:00,
2013-04-25 04:32:00,35.0,30.0,30.18,SSW,202,0.0,0.0,82,0.00,,,0.00,,2013-04-25 08:32:00,
2013-04-25 04:42:00,35.0,30.0,30.18,SSW,202,0.0,0.0,82,0.00,,,0.00,,2013-04-25 08:42:00,
2013-04-25 04:51:00,35.0,30.0,30.18,South,180,0.0,0.0,82,0.00,,,0.00,,2013-04-25 08:51:00,
2013-04-25 05:01:00,35.0,30.0,30.18,South,180,0.0,0.0,83,0.00,,,0.00,,2013-04-25 09:01:00,
2013-04-25 05:11:00,35.0,30.0,30.18,South,180,0.0,0.0,83,0.00,,,0.00,,2013-04-25 09:11:00,
2013-04-25 05:21:00,35.0,30.0,30.18,South,180,0.0,0.0,83,0.00,,,0.00,,2013-04-25 09:21:00,
2013-04-25 05:33:00,34.0,29.0,30.19,SSW,202,0.0,0.0,83,0.00,,,0.00,,2013-04-25 09:33:00,
2013-04-25 05:42:00,34.0,29.0,30.19,SSW,202,0.0,0.0,83,0.00,,,0.00,,2013-04-25 09:42:00,
2013-04-25 05:52:00,34.0,30.0,30.19,SSW,202,0.0,0.0,84,0.00,,,0.00,,2013-04-25 09:52:00,
2013-04-25 06:02:00,34.0,30.0,30.19,SSW,202,0.0,0.0,84,0.00,,,0.00,,2013-04-25 10:02:00,
2013-04-25 06:12:00,34.0,30.0,30.19,SSW,202,0.0,0.0,84,0.00,,,0.00,,2013-04-25 10:12:00,
2013-04-25 06:22:00,34.0,30.0,30.19,SSW,202,0.0,0.0,84,0.00,,,0.00,,2013-04-25 10:22:00,
2013-04-25 06:33:00,34.0,30.0,30.18,NW,315,0.0,0.0,84,0.00,,,0.00,,2013-04-25 10:33:00,
2013-04-25 06:42:00,34.0,30.0,30.18,NW,315,0.0,0.0,84,0.00,,,0.00,,2013-04-25 10:42:00,
2013-04-25 06:52:00,34.0,30.0,30.18,SSW,202,0.0,0.0,84,0.00,,,0.00,,2013-04-25 10:52:00,
2013-04-25 07:02:00,34.0,30.0,30.18,SSW,202,0.0,0.0,84,0.00,,,0.00,,2013-04-25 11:02:00,
2013-04-25 07:12:00,34.0,30.0,30.18,SSW,202,0.0,0.0,84,0.00,,,0.00,,2013-04-25 11:12:00,
2013-04-25 07:22:00,34.0,30.0,30.18,SSW,202,0.0,0.0,84,0.00,,,0.00,,2013-04-25 11:22:00,
2013-04-25 07:32:00,34.0,30.0,30.18,West,270,0.0,5.0,84,0.00,,,0.00,,2013-04-25 11:32:00,
2013-04-25 07:42:00,34.0,30.0,30.18,West,270,0.0,5.0,84,0.00,,,0.00,,2013-04-25 11:42:00,
2013-04-25 07:51:00,34.0,30.0,30.18,WSW,247,0.0,0.0,84,0.00,,,0.00,,2013-04-25 11:51:00,
2013-04-25 08:01:00,35.0,31.0,30.18,WNW,292,5.0,7.0,85,0.00,,,0.00,,2013-04-25 12:01:00,
2013-04-25 08:12:00,35.0,31.0,30.18,WNW,292,5.0,7.0,85,0.00,,,0.00,,2013-04-25 12:12:00,
2013-04-25 08:21:00,36.0,32.0,30.18,SW,229,2.0,2.0,85,0.00,,,0.00,,2013-04-25 12:21:00,
2013-04-25 08:32:00,38.0,33.0,30.18,WSW,249,6.0,9.0,83,0.00,,,0.00,,2013-04-25 12:32:00,
2013-04-25 08:42:00,38.0,33.0,30.18,WSW,249,6.0,9.0,83,0.00,,,0.00,,2013-04-25 12:42:00,
2013-04-25 08:51:00,38.0,33.0,30.18,SW,225,8.0,8.0,82,0.00,,,0.00,,2013-04-25 12:51:00,
2013-04-25 09:02:00,40.0,35.0,30.18,SW,236,2.0,10.0,81,0.00,,,0.00,,2013-04-25 13:02:00,
2013-04-25 09:11:00,40.0,35.0,30.18,SW,236,2.0,10.0,81,0.00,,,0.00,,2013-04-25 13:11:00,
2013-04-25 09:21:00,40.0,34.0,30.18,WSW,249,8.0,9.0,80,0.00,,,0.00,,2013-04-25 13:21:00,
2013-04-25 09:32:00,42.0,36.0,30.19,SSW,202,8.0,8.0,79,0.00,,,0.00,,2013-04-25 13:32:00,
2013-04-25 09:42:00,42.0,36.0,30.19,SSW,202,8.0,8.0,79,0.00,,,0.00,,2013-04-25 13:42:00,
2013-04-25 09:52:00,42.0,36.0,30.18,WSW,247,8.0,8.0,78,0.00,,,0.00,,2013-04-25 13:52:00,
2013-04-25 10:02:00,44.0,37.0,30.19,SW,229,2.0,8.0,77,0.00,,,0.00,,2013-04-25 14:02:00,
2013-04-25 10:11:00,44.0,37.0,30.19,SW,229,2.0,8.0,77,0.00,,,0.00,,2013-04-25 14:11:00,
2013-04-25 10:21:00,44.0,37.0,30.19,WNW,292,4.0,7.0,76,0.00,,,0.00,,2013-04-25 14:21:00,
2013-04-25 10:32:00,44.0,37.0,30.19,NW,308,5.0,7.0,75,0.00,,,0.00,,2013-04-25 14:32:00,
2013-04-25 10:42:00,44.0,37.0,30.19,NW,308,5.0,7.0,75,0.00,,,0.00,,2013-04-25 14:42:00,
2013-04-25 10:51:00,44.0,36.0,30.19,WNW,297,4.0,7.0,74,0.00,,,0.00,,2013-04-25 14:51:00,
2013-04-25 11:02:00,45.0,37.0,30.20,WNW,292,5.0,5.0,74,0.00,,,0.00,,2013-04-25 15:02:00,
2013-04-25 11:11:00,45.0,37.0,30.20,WNW,292,5.0,5.0,74,0.00,,,0.00,,2013-04-25 15:11:00,
2013-04-25 11:21:00,45.0,37.0,30.21,WNW,292,2.0,5.0,73,0.00,,,0.00,,2013-04-25 15:21:00,
2013-04-25 11:33:00,45.0,37.0,30.21,WNW,297,2.0,7.0,73,0.00,,,0.00,,2013-04-25 15:33:00,
2013-04-25 11:42:00,45.0,37.0,30.21,WNW,297,2.0,7.0,73,0.00,,,0.00,,2013-04-25 15:42:00,
2013-04-25 11:53:00,44.0,36.0,30.21,WSW,247,8.0,8.0,73,0.00,,,0.00,,2013-04-25 15:53:00,
2013-04-25 12:02:00,43.0,35.0,30.22,West,259,4.0,7.0,74,0.00,,,0.00,,2013-04-25 16:02:00,
2013-04-25 12:13:00,43.0,35.0,30.22,West,259,4.0,7.0,74,0.00,,,0.00,,2013-04-25 16:13:00,
2013-04-25 12:24:00,43.0,35.0,30.22,WNW,292,7.0,7.0,74,0.00,,,0.00,,2013-04-25 16:24:00,
2013-04-25 12:33:00,44.0,35.0,30.22,West,270,3.0,11.0,70,0.00,,,0.00,,2013-04-25 16:33:00,
2013-04-25 12:43:00,44.0,35.0,30.22,West,270,3.0,11.0,70,0.00,,,0.00,,2013-04-25 16:43:00,
2013-04-25 12:52:00,44.0,34.0,30.23,NW,315,6.0,7.0,68,0.00,,,0.00,,2013-04-25 16:52:00,
2013-04-25 13:02:00,44.0,32.0,30.23,WNW,292,11.0,15.0,63,0.00,,,0.00,,2013-04-25 17:02:00,
2013-04-25 13:11:00,44.0,32.0,30.23,WNW,292,11.0,15.0,63,0.00,,,0.00,,2013-04-25 17:11:00,
2013-04-25 13:22:00,43.0,30.0,30.23,NW,315,9.0,9.0,59,0.00,,,0.00,,2013-04-25 17:22:00,
2013-04-25 13:32:00,43.0,30.0,30.23,WNW,292,7.0,11.0,60,0.00,,,0.00,,2013-04-25 17:32:00,
2013-04-25 13:42:00,43.0,30.0,30.23,WNW,292,7.0,11.0,60,0.00,,,0.00,,2013-04-25 17:42:00,
2013-04-25 13:53:00,43.0,30.0,30.24,West,270,6.0,8.0,59,0.00,,,0.00,,2013-04-25 17:53:00,
2013-04-25 14:01:00,43.0,28.0,30.24,WSW,247,6.0,8.0,54,0.00,,,0.00,,2013-04-25 18:01:00,
2013-04-25 14:11:00,43.0,28.0,30.24,WSW,247,6.0,8.0,54,0.00,,,0.00,,2013-04-25 18:11:00,
2013-04-25 14:22:00,43.0,28.0,30.25,West,278,5.0,8.0,54,0.00,,,0.00,,2013-04-25 18:22:00,
2013-04-25 14:32:00,42.0,26.0,30.25,West,270,7.0,10.0,53,0.00,,,0.00,,2013-04-25 18:32:00,
2013-04-25 14:42:00,42.0,26.0,30.25,West,270,7.0,10.0,53,0.00,,,0.00,,2013-04-25 18:42:00,
2013-04-25 14:52:00,42.0,26.0,30.26,NW,315,6.0,10.0,52,0.00,,,0.00,,2013-04-25 18:52:00,
2013-04-25 15:02:00,42.0,26.0,30.27,NW,315,7.0,9.0,52,0.00,,,0.00,,2013-04-25 19:02:00,
2013-04-25 15:12:00,42.0,26.0,30.27,NW,315,7.0,9.0,52,0.00,,,0.00,,2013-04-25 19:12:00,
2013-04-25 15:21:00,43.0,26.0,30.27,North,355,3.0,14.0,51,0.00,,,0.00,,2013-04-25 19:21:00,
2013-04-25 15:32:00,44.0,27.0,30.27,NW,305,5.0,6.0,51,0.00,,,0.00,,2013-04-25 19:32:00,
2013-04-25 15:42:00,44.0,27.0,30.27,NW,305,5.0,6.0,51,0.00,,,0.00,,2013-04-25 19:42:00,
2013-04-25 15:52:00,44.0,27.0,30.27,NW,315,7.0,8.0,51,0.00,,,0.00,,2013-04-25 19:52:00,
2013-04-25 16:02:00,46.0,30.0,30.27,NW,315,6.0,6.0,53,0.00,,,0.00,,2013-04-25 20:02:00,
2013-04-25 16:11:00,46.0,30.0,30.27,NW,315,6.0,6.0,53,0.00,,,0.00,,2013-04-25 20:11:00,
2013-04-25 16:22:00,47.0,31.0,30.27,NW,315,5.0,6.0,53,0.00,,,0.00,,2013-04-25 20:22:00,
2013-04-25 16:32:00,48.0,32.0,30.27,WNW,292,6.0,8.0,54,0.00,,,0.00,,2013-04-25 20:32:00,
2013-04-25 16:42:00,48.0,32.0,30.27,WNW,292,6.0,8.0,54,0.00,,,0.00,,2013-04-25 20:42:00,
2013-04-25 16:52:00,49.0,33.0,30.27,WNW,287,9.0,9.0,53,0.00,,,0.00,,2013-04-25 20:52:00,
2013-04-25 17:01:00,50.0,34.0,30.27,NW,315,4.0,5.0,54,0.00,,,0.00,,2013-04-25 21:01:00,
2013-04-25 17:11:00,50.0,34.0,30.27,NW,315,4.0,5.0,54,0.00,,,0.00,,2013-04-25 21:11:00,
2013-04-25 17:22:00,51.0,35.0,30.27,WNW,292,1.0,5.0,55,0.00,,,0.00,,2013-04-25 21:22:00,
2013-04-25 17:33:00,52.0,36.0,30.28,West,279,5.0,8.0,54,0.00,,,0.00,,2013-04-25 21:33:00,
2013-04-25 17:42:00,52.0,36.0,30.28,West,279,5.0,8.0,54,0.00,,,0.00,,2013-04-25 21:42:00,
2013-04-25 17:52:00,52.0,36.0,30.28,NNW,340,3.0,11.0,54,0.00,,,0.00,,2013-04-25 21:52:00,
2013-04-25 18:03:00,52.0,35.0,30.30,NW,315,1.0,8.0,53,0.00,,,0.00,,2013-04-25 22:03:00,
2013-04-25 18:12:00,52.0,35.0,30.30,NW,315,1.0,8.0,53,0.00,,,0.00,,2013-04-25 22:12:00,
2013-04-25 18:22:00,52.0,35.0,30.30,WNW,292,5.0,5.0,53,0.00,,,0.00,,2013-04-25 22:22:00,
2013-04-25 18:33:00,53.0,36.0,30.29,WNW,297,7.0,7.0,52,0.00,,,0.00,,2013-04-25 22:33:00,
2013-04-25 18:42:00,53.0,36.0,30.29,WNW,297,7.0,7.0,52,0.00,,,0.00,,2013-04-25 22:42:00,
2013-04-25 18:52:00,52.0,34.0,30.30,NW,315,6.0,8.0,51,0.00,,,0.00,,2013-04-25 22:52:00,
2013-04-25 19:02:00,52.0,34.0,30.30,NW,315,3.0,4.0,50,0.00,,,0.00,,2013-04-25 23:02:00,
2013-04-25 19:12:00,52.0,34.0,30.30,NW,315,3.0,4.0,50,0.00,,,0.00,,2013-04-25 23:12:00,
2013-04-25 19:22:00,52.0,34.0,30.30,NW,305,1.0,9.0,50,0.00,,,0.00,,2013-04-25 23:22:00,
2013-04-25 19:32:00,52.0,33.0,30.31,WNW,292,2.0,4.0,49,0.00,,,0.00,,2013-04-25 23:32:00,
2013-04-25 19:42:00,52.0,33.0,30.31,WNW,292,2.0,4.0,49,0.00,,,0.00,,2013-04-25 23:42:00,
2013-04-25 19:52:00,51.0,33.0,30.32,West,270,2.0,3.0,49,0.00,,,0.00,,2013-04-25 23:52:00,
2013-04-25 20:01:00,50.0,32.0,30.32,WNW,292,2.0,4.0,50,0.00,,,0.00,,2013-04-26 00:01:00,
2013-04-25 20:11:00,50.0,32.0,30.32,WNW,292,2.0,4.0,50,0.00,,,0.00,,2013-04-26 00:11:00,
2013-04-25 20:21:00,50.0,32.0,30.32,NW,322,2.0,4.0,50,0.00,,,0.00,,2013-04-26 00:21:00,
2013-04-25 20:32:00,49.0,31.0,30.32,NW,315,0.0,4.0,50,0.00,,,0.00,,2013-04-26 00:32:00,
2013-04-25 20:41:00,49.0,31.0,30.32,NW,315,0.0,4.0,50,0.00,,,0.00,,2013-04-26 00:41:00,
2013-04-25 20:51:00,48.0,31.0,30.32,NW,315,0.0,0.0,52,0.00,,,0.00,,2013-04-26 00:51:00,
2013-04-25 21:01:00,47.0,31.0,30.33,West,270,0.0,0.0,53,0.00,,,0.00,,2013-04-26 01:01:00,
2013-04-25 21:11:00,47.0,31.0,30.33,West,270,0.0,0.0,53,0.00,,,0.00,,2013-04-26 01:11:00,
2013-04-25 21:21:00,45.0,29.0,30.33,West,270,0.0,0.0,54,0.00,,,0.00,,2013-04-26 01:21:00,
2013-04-25 21:31:00,45.0,30.0,30.34,West,270,0.0,0.0,55,0.00,,,0.00,,2013-04-26 01:31:00,
2013-04-25 21:42:00,45.0,30.0,30.34,West,270,0.0,0.0,55,0.00,,,0.00,,2013-04-26 01:42:00,
2013-04-25 21:52:00,43.0,29.0,30.34,West,270,0.0,0.0,57,0.00,,,0.00,,2013-04-26 01:52:00,
2013-04-25 22:02:00,43.0,29.0,30.35,West,270,0.0,0.0,58,0.00,,,0.00,,2013-04-26 02:02:00,
2013-04-25 22:11:00,43.0,29.0,30.35,West,270,0.0,0.0,58,0.00,,,0.00,,2013-04-26 02:11:00,
2013-04-25 22:21:00,42.0,29.0,30.36,West,270,0.0,0.0,59,0.00,,,0.00,,2013-04-26 02:21:00,
2013-04-25 22:32:00,41.0,28.0,30.36,West,270,0.0,0.0,60,0.00,,,0.00,,2013-04-26 02:32:00,
2013-04-25 22:42:00,41.0,28.0,30.36,West,270,0.0,0.0,60,0.00,,,0.00,,2013-04-26 02:42:00,
2013-04-25 22:52:00,40.0,28.0,30.37,West,270,0.0,0.0,62,0.00,,,0.00,,2013-04-26 02:52:00,
2013-04-25 23:01:00,40.0,28.0,30.37,West,270,0.0,0.0,63,0.00,,,0.00,,2013-04-26 03:01:00,
2013-04-25 23:11:00,40.0,28.0,30.37,West,270,0.0,0.0,63,0.00,,,0.00,,2013-04-26 03:11:00,
2013-04-25 23:22:00,40.0,28.0,30.38,West,270,0.0,0.0,63,0.00,,,0.00,,2013-04-26 03:22:00,
2013-04-25 23:33:00,39.0,28.0,30.37,West,270,0.0,0.0,64,0.00,,,0.00,,2013-04-26 03:33:00,
2013-04-25 23:43:00,39.0,28.0,30.37,West,270,0.0,0.0,64,0.00,,,0.00,,2013-04-26 03:43:00,
2013-04-25 23:53:00,39.0,28.0,30.38,West,270,0.0,0.0,64,0.00,,,0.00,,2013-04-26 03:53:00,